TimeEST,TemperatureF,Dew PointF,Humidity,Sea Level PressureIn,VisibilityMPH,Wind Direction,Wind SpeedMPH,Gust SpeedMPH,PrecipitationIn,Events,Conditions,WindDirDegrees,DateUTC
12:01 AM,35.1,33.1,92,29.88,10.0,Variable,5.8,-,N/A,,Mostly Cloudy,0,2014-01-16 05:01:00
12:50 AM,35.6,33.8,93,29.87,10.0,South,5.8,-,N/A,,Scattered Clouds,170,2014-01-16 05:50:00
12:53 AM,35.1,33.1,92,29.89,10.0,South,5.8,-,N/A,,Scattered Clouds,170,2014-01-16 05:53:00
1:02 AM,35.1,33.1,92,29.87,10.0,South,4.6,-,N/A,,Mostly Cloudy,180,2014-01-16 06:02:00
1:53 AM,34.0,32.0,92,29.90,10.0,SSW,3.5,-,N/A,,Overcast,210,2014-01-16 06:53:00
2:53 AM,33.1,32.0,96,29.92,7.0,Calm,Calm,-,N/A,,Overcast,0,2014-01-16 07:53:00
3:53 AM,33.1,32.0,96,29.92,5.0,Calm,Calm,-,N/A,,Overcast,0,2014-01-16 08:53:00
4:53 AM,32.0,30.9,96,29.92,5.0,Calm,Calm,-,N/A,,Overcast,0,2014-01-16 09:53:00
5:53 AM,32.0,30.9,96,29.91,6.0,Calm,Calm,-,N/A,,Overcast,0,2014-01-16 10:53:00
6:53 AM,32.0,30.0,92,29.91,2.0,Calm,Calm,-,N/A,,Overcast,0,2014-01-16 11:53:00
6:59 AM,30.9,30.9,100,29.90,1.2,Calm,Calm,-,N/A,,Overcast,0,2014-01-16 11:59:00
7:02 AM,30.9,30.9,100,29.90,1.8,Calm,Calm,-,N/A,,Overcast,0,2014-01-16 12:02:00
7:18 AM,32.0,30.9,96,29.90,1.2,Calm,Calm,-,N/A,,Overcast,0,2014-01-16 12:18:00
7:27 AM,32.0,30.9,96,29.90,0.2,Calm,Calm,-,N/A,Fog,Fog,0,2014-01-16 12:27:00
7:36 AM,30.9,30.0,96,29.90,0.2,Calm,Calm,-,N/A,Fog,Light Freezing Fog,0,2014-01-16 12:36:00
7:53 AM,30.0,30.0,100,29.93,0.2,Calm,Calm,-,N/A,Fog,Light Freezing Fog,0,2014-01-16 12:53:00
8:53 AM,32.0,30.0,92,29.94,0.2,Calm,Calm,-,N/A,Fog,Fog,0,2014-01-16 13:53:00
9:53 AM,33.1,32.0,96,29.94,0.2,NNE,4.6,-,N/A,Fog,Fog,30,2014-01-16 14:53:00
9:59 AM,33.1,32.0,96,29.92,1.8,NNE,5.8,-,N/A,,Overcast,30,2014-01-16 14:59:00
10:01 AM,33.1,32.0,96,29.91,3.0,NNE,5.8,-,N/A,,Overcast,30,2014-01-16 15:01:00
10:35 AM,34.0,33.1,96,29.90,8.0,North,3.5,-,N/A,,Overcast,10,2014-01-16 15:35:00
10:42 AM,34.0,32.0,92,29.89,8.0,North,3.5,-,N/A,,Overcast,360,2014-01-16 15:42:00
10:53 AM,34.0,32.0,92,29.92,8.0,North,4.6,-,N/A,,Overcast,350,2014-01-16 15:53:00
11:53 AM,35.1,32.0,89,29.90,8.0,North,3.5,-,N/A,,Overcast,350,2014-01-16 16:53:00
12:53 PM,35.1,32.0,89,29.91,10.0,Calm,Calm,-,N/A,,Mostly Cloudy,0,2014-01-16 17:53:00
1:53 PM,35.1,32.0,89,29.88,10.0,North,5.8,-,N/A,,Overcast,350,2014-01-16 18:53:00
2:53 PM,36.0,32.0,86,29.92,10.0,North,4.6,-,N/A,,Overcast,350,2014-01-16 19:53:00
3:53 PM,35.1,30.9,85,29.90,10.0,North,9.2,-,N/A,,Overcast,10,2014-01-16 20:53:00
4:53 PM,34.0,30.0,85,29.90,10.0,North,4.6,-,N/A,,Overcast,10,2014-01-16 21:53:00
5:53 PM,34.0,28.9,82,29.89,10.0,Calm,Calm,-,N/A,,Overcast,0,2014-01-16 22:53:00
6:53 PM,33.1,28.9,85,29.91,10.0,Calm,Calm,-,N/A,,Overcast,0,2014-01-16 23:53:00
7:53 PM,33.1,30.0,89,29.92,10.0,Calm,Calm,-,N/A,,Overcast,0,2014-01-17 00:53:00
8:53 PM,33.1,30.0,89,29.93,10.0,Calm,Calm,-,N/A,,Overcast,0,2014-01-17 01:53:00
9:45 PM,33.1,30.0,89,29.91,10.0,Calm,Calm,-,N/A,,Overcast,0,2014-01-17 02:45:00
9:53 PM,33.1,30.0,89,29.94,10.0,Calm,Calm,-,N/A,,Overcast,0,2014-01-17 02:53:00
10:53 PM,33.1,28.9,85,29.93,10.0,NNE,3.5,-,N/A,,Overcast,20,2014-01-17 03:53:00
11:53 PM,33.1,30.0,89,29.91,10.0,Calm,Calm,-,N/A,,Overcast,0,2014-01-17 04:53:00